Location: Newark
(41.8922°N, 9.0050°E)
Time: 09:46:15
(UTC+00:00)

ISS - Pass Details

Date: 24 January 2020
Orbit: 415 x 422 km, 51.6° (Epoch: 23 February)

Event Time Altitude Azimuth Distance (km) Brightness Sun altitude
Rises 18:56:27 0° 281° (W) 2,375 1.3 -27.5°
Reaches altitude 10° 18:59:00 10° 300° (WNW) 1,510 -0.2 -27.9°
Enters shadow 18:59:50 14° 312° (NW) 1,293 -0.8 -28.1°
